Location: Ottawa
(45.4170°N, 75.7000°W)
Time: 12:55:02
(UTC-05:00)

Iridium 91 - Visible Passes

Search period start: 06 December 2016 00:00
Search period end: 16 December 2016 00:00
Orbit: 776 x 779 km, 86.4° (Epoch: 06 December)

Date Brightness Start Highest point End Pass type
(mag) Time Alt. Az. Time Alt. Az. Time Alt. Az.
06 Dec 7.1 06:29:35 10° NNE 06:34:25 37° E 06:39:13 10° SSE visible
07 Dec 8.0 05:56:39 10° NNE 06:00:38 22° ENE 06:04:35 10° SE visible
08 Dec 8.4 05:24:32 10° NE 05:26:41 12° ENE 05:28:49 10° E visible
09 Dec 6.5 06:29:30 10° N 06:34:37 52° E 06:39:41 10° SSE visible
10 Dec 7.5 05:56:20 10° NNE 06:00:54 30° ENE 06:05:26 10° SE visible
11 Dec 8.2 05:23:37 10° NNE 05:27:03 17° ENE 05:30:28 10° ESE visible
11 Dec 7.6 18:22:11 10° SE 18:22:31 12° SE 18:22:31 12° SE visible
11 Dec 8.2 20:02:46 10° SW 20:03:04 11° SW 20:03:04 11° SW visible
12 Dec 5.8 06:29:31 10° N 06:34:46 73° E 06:39:58 10° S visible
12 Dec 7.5 17:49:58 10° ESE 17:50:16 11° ESE 17:50:16 11° ESE visible
12 Dec 7.2 19:28:37 10° SSW 19:30:49 25° SSW 19:30:49 25° SSW visible
13 Dec 6.8 05:56:11 10° N 06:01:08 41° E 06:06:02 10° SSE visible
13 Dec 6.0 18:54:59 10° S 18:58:37 46° S 18:58:37 46° S visible
13 Dec 8.5 20:38:58 10° W 20:39:11 11° W 20:39:11 11° W visible
14 Dec 7.8 05:23:09 10° NNE 05:27:22 24° ENE 05:31:33 10° SE visible
14 Dec 5.8 18:21:49 10° SSE 18:26:28 45° E 18:26:28 45° E visible
14 Dec 7.6 20:03:32 10° SW 20:07:02 23° W 20:07:02 23° W visible
15 Dec 8.4 04:50:46 10° NE 04:53:27 14° ENE 04:56:08 10° E visible
15 Dec 5.5 06:29:37 10° N 06:34:52 80° W 06:40:04 10° S visible
15 Dec 6.4 17:49:11 10° SE 17:53:26 26° E 17:54:21 25° ENE visible
15 Dec 6.7 19:29:02 10° SSW 19:33:55 41° W 19:34:55 37° NW visible
